KBZN

Bozeman Yellowstone International Airport

Airport
ICAO code
KBZN
Summary
ICAO Region
NAM
ICAO Territory
Location

Belgrade, Gallatin County, Montana,

Coordinates
45° 46' 37" N , 111° 9' 38" W
KCC
Airport CFIT
Altimeter Temperature Error Correction
Airport RE
Hot and High Operations
Metar
Observation
KBZN 091902Z 07008KT 2 1/2SM -SN BR BKN028 OVC036 M02/M04 A2984 RMK AO2 P0000 T10221044
Station
Bozeman, Gallatin Field
Date/Time
2022-12-09 19:02:00
Wind direction
70°
Wind speed
08 kts
Lowest cloud amount
broken clouds
Temperature
-2.2°C
Dew point
-4.4°C
Humidity
84%
Weather condition
light

Description

Bozeman Yellowstone International Airport, formerly known as Gallatin Field Airport, is a public-use airport located 13 km northwest of the central business district of Bozeman, a city in Gallatin County, Montana, United States. It is owned by the Gallatin Airport Authority. The airport is situated in Belgrade, Montana and serves Bozeman, Big Sky, Southwestern Montana and Yellowstone National Park.

Climatology

Continental climate (Köppen climate classification DFb) with cold winters and warm, dry summers.

Airport map

Aerial View

SKYbrary Partners:

Safety knowledge contributed by: